Regional Weather Roundup
Issued by NWS

Home | Current Version | Previous Version | Graphics & Text | Print | Product List | Glossary On
Versions: 1 2 3 4 5 6 7 8 9 10 11 12 13 14 15 16 17 18 19 20 21 22 23 24 25 26 27 28 29 30 31 32 33 34 35 36 37 38 39 40 41 42 43 44 45 46 47 48 49 50
000
ASUS43 KLSX 281159
RWRMO

WEATHER SUMMARY FOR MISSOURI
NATIONAL WEATHER SERVICE SPRINGFIELD MO
700 AM CDT TUE JUL 28 2015

NOTE: "FAIR" INDICATES FEW OR NO CLOUDS BELOW 12,000 FEET WITH NO
       SIGNIFICANT WEATHER AND/OR OBSTRUCTIONS TO VISIBILITY.
       CURRENT SKY AND/OR WEATHER CONDITIONS ARE NOT AVAILABLE FOR
       CHILLICOTHE AND FARMINGTON.

MOZ001>031-035>038-043-044-053-054-281300-
...NORTHERN AND WESTERN MISSOURI...

CITY           SKY/WX    TMP DP  RH WIND       PRES   REMARKS
KANSAS CTY INT PTCLDY    78  74  87 S9        29.88S
6HR MIN TEMP:  75; 6HR MAX TEMP:  78;

KANSAS C DTWN  CLEAR     81  75  82 S9        29.87S
6HR MIN TEMP:  78; 6HR MAX TEMP:  82;

LEE`S SUMMIT   CLEAR     79  74  84 S9        29.91R
6HR MIN TEMP:  78; 6HR MAX TEMP:  80;

ST JOSEPH      PTCLDY    78  74  87 S10       29.85S
6HR MIN TEMP:  74; 6HR MAX TEMP:  78;

KIRKSVILLE     CLEAR     72  70  93 SE6       29.92F
6HR MIN TEMP:  71; 6HR MAX TEMP:  73;


$$
MOZ066>068-077>081-088>096-101>105-281300-
...SOUTHWEST MISSOURI...

CITY           SKY/WX    TMP DP  RH WIND       PRES   REMARKS
SPRINGFIELD    CLEAR     77  73  87 S7        29.97R
6HR MIN TEMP:  77; 6HR MAX TEMP:  81;

JOPLIN         CLEAR     78  71  79 S9        29.94R
6HR MIN TEMP:  78; 6HR MAX TEMP:  82;


$$
MOZ032>034-039>042-045>050-055>058-069>072-281300-
...CENTRAL MISSOURI...

CITY           SKY/WX    TMP DP  RH WIND       PRES   REMARKS
COLUMBIA       CLEAR     74  73  97 S5        29.94R
6HR MIN TEMP:  73; 6HR MAX TEMP:  74;

JEFFERSON CITY CLEAR     75  72  90 SE3       29.93R
6HR MIN TEMP:  74; 6HR MAX TEMP:  76;

ROLLA          CLEAR     76  73  91 S7        29.95S
6HR MIN TEMP:  74; 6HR MAX TEMP:  76;

SEDALIA        CLEAR     78  75  90 S8        29.94R
6HR MIN TEMP:  75; 6HR MAX TEMP:  78;

OSAGE BEACH    CLEAR     77  72  83 S5        29.95S

$$
MOZ051-052-059>065-281300-
...EAST CENTRAL MISSOURI...

CITY           SKY/WX    TMP DP  RH WIND       PRES   REMARKS
ST LOUIS INTL  PTSUNNY   77  72  84 E3        29.96R
6HR MIN TEMP:  76; 6HR MAX TEMP:  79;

SPIRIT OF STL  SUNNY     75  74  96 CALM      29.94R
6HR MIN TEMP:  73; 6HR MAX TEMP:  76;

ST CHARLES     SUNNY     74  73  97 CALM      29.94R
6HR MIN TEMP:  72; 6HR MAX TEMP:  74;


$$
MOZ072>076-082>087-097>100-106>115-281300-
...SOUTH CENTRAL AND SOUTHEAST MISSOURI...

CITY           SKY/WX    TMP DP  RH WIND       PRES   REMARKS
CAPE GIRARDEAU SUNNY     75  74  96 CALM      29.97R
6HR MIN TEMP:  74; 6HR MAX TEMP:  77;

FARMINGTON     CLEAR     73  72  94 S3        30.02S
6HR MIN TEMP:  73; 6HR MAX TEMP:  75;

POPLAR BLUFF   CLEAR     77  75  93 CALM      29.96R
6HR MIN TEMP:  76; 6HR MAX TEMP:  80;

WEST PLAINS    CLEAR     75  71  87 CALM      30.01R
6HR MIN TEMP:  75; 6HR MAX TEMP:  79;


$$



USA.gov is the U.S. government's official web portal to all federal, state and local government web resources and services.